Starlink 31964

operational
NORAD ID: 59895 Int'l Des: 2024-100 Owner: SPXS Country: US Constellation: starlink
LEOCIRCULAR

About Starlink 31964

Description loading...

Live Position

Loading 3D Globe...

Upcoming Passes

Altitude History

Altitude vs Time

uPlot chart will show altitude changes over time

Two-Line Element Set

1 59895U 24100L 25305.55063213 .00002472 00000-0 99443-4 0 9991
2 59895 43.0027 128.7155 0001642 270.3948 89.6716 15.27546171 81510
Epoch: Nov 1, 2025 • Age: 24 hours

Current Status

Altitude 482.6 km
Velocity 7.63 km/s
Sub-Earth Point 16.09°N, 93.87°W
Launch Date May 28, 2024
Age 1.4 years
Type internet

Technical Details

Classification Payload
Mass 730.00 kg
Dry Mass 700.00 kg
Total Mass 730.00 kg
Length 0.30 m
Diameter 4.10 m
Span 29.00 m
Shape Box + pan
Manufacturer SPXS
Bus Type Starlink V2M
Phase Status In Orbit
Owner/State SPXS/US

Large Constellations

Loading constellations...